| time (UTC) | temp F | wind direction | speed knots | gust knots | rain 1hr in | rain 24hr in | rain mn in | humidity % | barometer mb |
| 20260506193454 | 59 | 316 | 0.9 | 1.7 | 0.07 | 0.09 | 0.09 | 97 | 1008.8 |
| 20260506192950 | 59 | 184 | 2.6 | 7.0 | 0.07 | 0.09 | 0.09 | 97 | 1009.1 |
| 20260506192448 | 59 | 199 | 4.3 | 7.0 | 0.00 | 0.08 | 0.08 | 97 | 1009.0 |
| 20260506191944 | 59 | 295 | 2.6 | 4.3 | 0.00 | 0.08 | 0.08 | 97 | 1009.0 |
| 20260506191441 | 59 | 266 | 2.6 | 2.6 | 0.07 | 0.08 | 0.08 | 97 | 1009.0 |
| 20260506190937 | 59 | 293 | 1.7 | 4.3 | 0.00 | 0.07 | 0.07 | 97 | 1009.1 |
| 20260506190434 | 59 | 241 | 2.6 | 2.6 | 0.05 | 0.07 | 0.07 | 97 | 1009.1 |
| 20260506185931 | 59 | 227 | 2.6 | 2.6 | 0.00 | 0.06 | 0.06 | 97 | 1009.1 |
| 20260506185428 | 59 | 266 | 1.7 | 4.3 | 0.00 | 0.06 | 0.06 | 96 | 1009.3 |
| 20260506184925 | 59 | 262 | 3.5 | 6.1 | 0.00 | 0.06 | 0.06 | 96 | 1009.3 |
| 20260506184422 | 59 | 0 | 0.9 | 4.3 | 0.00 | 0.06 | 0.06 | 97 | 1009.3 |
| 20260506183919 | 59 | 348 | 0.0 | 2.6 | 0.00 | 0.06 | 0.06 | 97 | 1009.4 |
| 20260506183415 | 59 | 10 | 1.7 | 4.3 | 0.00 | 0.06 | 0.06 | 96 | 1009.4 |
| 20260506182912 | 59 | 293 | 0.9 | 1.7 | 0.00 | 0.06 | 0.06 | 96 | 1009.7 |
| 20260506182409 | 59 | 341 | 1.7 | 4.3 | 0.07 | 0.06 | 0.06 | 96 | 1009.5 |
| 20260506181907 | 59 | 344 | 2.6 | 6.1 | 0.07 | 0.06 | 0.06 | 96 | 1009.7 |
| 20260506181404 | 59 | 242 | 2.6 | 7.0 | 0.00 | 0.05 | 0.05 | 95 | 1009.9 |
| 20260506180901 | 59 | 258 | 4.3 | 5.2 | 0.05 | 0.05 | 0.05 | 95 | 1009.7 |
| 20260506180357 | 59 | 17 | 0.0 | 2.6 | 0.05 | 0.05 | 0.05 | 95 | 1009.7 |
| 20260506175854 | 59 | 340 | 0.0 | 1.7 | 0.00 | 0.04 | 0.04 | 95 | 1009.5 |
| 20260506175350 | 59 | 338 | 1.7 | 2.6 | 0.00 | 0.04 | 0.04 | 94 | 1009.6 |
| 20260506174848 | 59 | 155 | 2.6 | 4.3 | 0.00 | 0.04 | 0.04 | 93 | 1009.5 |
| 20260506174345 | 59 | 36 | 0.0 | 5.2 | 0.00 | 0.04 | 0.04 | 93 | 1009.7 |
| 20260506173843 | 59 | 106 | 0.9 | 2.6 | 0.07 | 0.04 | 0.04 | 93 | 1009.6 |
| 20260506173339 | 60 | 175 | 2.6 | 5.2 | 0.00 | 0.03 | 0.03 | 92 | 1009.7 |
| 20260506172836 | 60 | 190 | 3.5 | 5.2 | 0.05 | 0.03 | 0.03 | 91 | 1009.7 |
| 20260506172333 | 61 | 5 | 1.7 | 4.3 | 0.12 | 0.03 | 0.03 | 91 | 1009.9 |
| 20260506171830 | 61 | 74 | 1.7 | 6.1 | 0.07 | 0.02 | 0.02 | 90 | 1010.0 |
| 20260506171327 | 62 | 186 | 1.7 | 5.2 | 0.05 | 0.01 | 0.01 | 89 | 1010.2 |
| 20260506170825 | 62 | 44 | 0.9 | 2.6 | 0.05 | 0.01 | 0.01 | 88 | 1010.4 |
| 20260506170321 | 62 | 297 | 1.7 | 4.3 | 0.00 | 0.00 | 0.00 | 87 | 1010.4 |
| 20260506165820 | 63 | 285 | 0.9 | 1.7 | 0.00 | 0.00 | 0.00 | 86 | 1010.5 |
| 20260506165317 | 63 | 241 | 2.6 | 5.2 | 0.00 | 0.00 | 0.00 | 84 | 1010.7 |
| 20260506164814 | 64 | 220 | 1.7 | 2.6 | 0.00 | 0.00 | 0.00 | 82 | 1010.5 |
| 20260506164310 | 64 | 194 | 6.1 | 7.8 | 0.00 | 0.00 | 0.00 | 79 | 1010.7 |
| 20260506163808 | 64 | 262 | 2.6 | 5.2 | 0.00 | 0.00 | 0.00 | 79 | 1010.7 |
| 20260506163302 | 65 | 232 | 4.3 | 7.8 | 0.00 | 0.00 | 0.00 | 77 | 1010.5 |
| 20260506162758 | 65 | 208 | 4.3 | 7.0 | 0.00 | 0.00 | 0.00 | 77 | 1010.7 |
| 20260506162256 | 66 | 132 | 4.3 | 6.1 | 0.00 | 0.00 | 0.00 | 77 | 1010.7 |
| 20260506161753 | 66 | 257 | 3.5 | 6.1 | 0.00 | 0.00 | 0.00 | 76 | 1010.7 |
| 20260506161250 | 66 | 227 | 3.5 | 6.1 | 0.00 | 0.00 | 0.00 | 76 | 1010.7 |
| 20260506160748 | 66 | 232 | 3.5 | 6.1 | 0.00 | 0.00 | 0.00 | 77 | 1010.6 |
| 20260506160244 | 66 | 199 | 2.6 | 6.1 | 0.00 | 0.00 | 0.00 | 76 | 1010.6 |
| 20260506155743 | 66 | 356 | 1.7 | 4.3 | 0.00 | 0.00 | 0.00 | 75 | 1010.6 |
| 20260506155239 | 66 | 21 | 1.7 | 5.2 | 0.00 | 0.00 | 0.00 | 74 | 1010.8 |
| 20260506153347 | 67 | 208 | 3.5 | 4.3 | 0.00 | 0.00 | 0.00 | 74 | 1011.1 |
| 20260506152844 | 66 | 278 | 2.6 | 5.2 | 0.00 | 0.00 | 0.00 | 74 | 1011.2 |
| 20260506152341 | 66 | 196 | 6.1 | 7.0 | 0.00 | 0.00 | 0.00 | 74 | 1011.1 |
| 20260506151839 | 66 | 176 | 7.8 | 11.3 | 0.00 | 0.00 | 0.00 | 74 | 1010.9 |
| 20260506151335 | 66 | 176 | 7.8 | 11.3 | 0.00 | 0.00 | 0.00 | 74 | 1010.9 |
| 20260506150833 | 66 | 121 | 3.5 | 6.1 | 0.00 | 0.00 | 0.00 | 74 | 1010.9 |
| 20260506150330 | 67 | 244 | 2.6 | 2.6 | 0.00 | 0.00 | 0.00 | 74 | 1010.9 |
| 20260506145826 | 66 | 251 | 6.1 | 13.0 | 0.00 | 0.00 | 0.00 | 74 | 1011.1 |
| 20260506145323 | 66 | 203 | 5.2 | 7.0 | 0.00 | 0.00 | 0.00 | 73 | 1010.9 |
| 20260506144820 | 67 | 240 | 2.6 | 6.1 | 0.00 | 0.00 | 0.00 | 75 | 1011.0 |
| 20260506144317 | 66 | 293 | 2.6 | 5.2 | 0.00 | 0.00 | 0.00 | 74 | 1011.1 |
| 20260506143816 | 66 | 277 | 1.7 | 7.8 | 0.00 | 0.00 | 0.00 | 75 | 1011.0 |
| 20260506143312 | 66 | 237 | 3.5 | 7.0 | 0.00 | 0.00 | 0.00 | 74 | 1011.2 |
| 20260506142810 | 66 | 230 | 4.3 | 6.1 | 0.00 | 0.00 | 0.00 | 74 | 1011.2 |
| 20260506142308 | 66 | 188 | 1.7 | 7.0 | 0.00 | 0.00 | 0.00 | 75 | 1011.3 |
| 20260506141806 | 66 | 311 | 2.6 | 7.0 | 0.00 | 0.00 | 0.00 | 75 | 1011.4 |
| 20260506141304 | 66 | 225 | 6.1 | 7.0 | 0.00 | 0.00 | 0.00 | 75 | 1011.3 |
| 20260506140801 | 66 | 213 | 5.2 | 7.0 | 0.00 | 0.00 | 0.00 | 74 | 1011.2 |
| 20260506140258 | 66 | 304 | 2.6 | 7.0 | 0.00 | 0.00 | 0.00 | 75 | 1011.4 |
| 20260506135755 | 66 | 178 | 2.6 | 4.3 | 0.00 | 0.00 | 0.00 | 75 | 1011.2 |
| 20260506135251 | 65 | 288 | 1.7 | 4.3 | 0.00 | 0.00 | 0.00 | 77 | 1011.1 |
| 20260506134748 | 65 | 207 | 3.5 | 9.6 | 0.00 | 0.00 | 0.00 | 77 | 1011.2 |
| 20260506134244 | 65 | 298 | 2.6 | 6.1 | 0.00 | 0.00 | 0.00 | 77 | 1011.1 |
| 20260506133742 | 65 | 208 | 1.7 | 4.3 | 0.00 | 0.00 | 0.00 | 77 | 1011.4 |
| 20260506133238 | 64 | 280 | 3.5 | 8.7 | 0.00 | 0.00 | 0.00 | 78 | 1011.1 |
| 20260506132735 | 64 | 207 | 4.3 | 7.0 | 0.00 | 0.00 | 0.00 | 78 | 1011.1 |
| 20260506132232 | 64 | 286 | 3.5 | 7.0 | 0.00 | 0.00 | 0.00 | 78 | 1011.2 |
| 20260506131730 | 65 | 251 | 3.5 | 5.2 | 0.00 | 0.00 | 0.00 | 78 | 1010.9 |
| 20260506131226 | 65 | 251 | 2.6 | 4.3 | 0.00 | 0.00 | 0.00 | 78 | 1011.1 |
| 20260506130723 | 64 | 220 | 3.5 | 4.3 | 0.00 | 0.00 | 0.00 | 79 | 1011.3 |
| 20260506130220 | 64 | 201 | 3.5 | 5.2 | 0.00 | 0.00 | 0.00 | 79 | 1011.3 |
| 20260506125718 | 63 | 194 | 1.7 | 2.6 | 0.00 | 0.00 | 0.00 | 81 | 1011.3 |
| 20260506125215 | 63 | 326 | 0.9 | 2.6 | 0.00 | 0.00 | 0.00 | 82 | 1011.3 |
| 20260506124713 | 63 | 221 | 0.9 | 2.6 | 0.00 | 0.00 | 0.00 | 82 | 1011.4 |
| 20260506124211 | 63 | 315 | 2.6 | 4.3 | 0.00 | 0.00 | 0.00 | 82 | 1011.3 |
| 20260506123708 | 62 | 7 | 0.9 | 6.1 | 0.00 | 0.00 | 0.00 | 82 | 1011.4 |
| 20260506123207 | 62 | 341 | 2.6 | 6.1 | 0.00 | 0.00 | 0.00 | 82 | 1011.5 |
| 20260506122703 | 62 | 318 | 1.7 | 2.6 | 0.00 | 0.00 | 0.00 | 83 | 1011.6 |
| 20260506122201 | 62 | 260 | 3.5 | 5.2 | 0.00 | 0.00 | 0.00 | 84 | 1011.9 |
| 20260506121659 | 62 | 256 | 3.5 | 5.2 | 0.00 | 0.00 | 0.00 | 83 | 1011.9 |
| 20260506121155 | 62 | 222 | 3.5 | 4.3 | 0.00 | 0.00 | 0.00 | 83 | 1011.7 |
| 20260506120653 | 61 | 233 | 2.6 | 2.6 | 0.00 | 0.00 | 0.00 | 84 | 1011.8 |
| 20260506120150 | 61 | 13 | 0.9 | 1.7 | 0.00 | 0.00 | 0.00 | 85 | 1011.7 |
| 20260506115648 | 60 | 111 | 2.6 | 4.3 | 0.00 | 0.00 | 0.00 | 86 | 1011.8 |
| 20260506115146 | 60 | 331 | 0.9 | 0.9 | 0.00 | 0.00 | 0.00 | 87 | 1011.6 |
| 20260506114643 | 60 | 69 | 2.6 | 2.6 | 0.00 | 0.00 | 0.00 | 87 | 1011.5 |
| 20260506114141 | 60 | 219 | 1.7 | 1.7 | 0.00 | 0.00 | 0.00 | 88 | 1011.7 |
| 20260506113640 | 59 | 89 | 1.7 | 1.7 | 0.00 | 0.00 | 0.00 | 88 | 1011.6 |
| 20260506113136 | 59 | 12 | 0.0 | 2.6 | 0.00 | 0.00 | 0.00 | 88 | 1011.6 |
| 20260506112632 | 59 | 0 | 0.0 | 1.7 | 0.00 | 0.00 | 0.00 | 89 | 1011.7 |
| 20260506112130 | 59 | 16 | 0.0 | 1.7 | 0.00 | 0.00 | 0.00 | 89 | 1011.9 |
| 20260506111628 | 58 | 25 | 0.0 | 1.7 | 0.00 | 0.00 | 0.00 | 90 | 1011.7 |
| 20260506111125 | 58 | 13 | 0.0 | 0.9 | 0.00 | 0.00 | 0.00 | 91 | 1011.8 |
| 20260506110622 | 58 | 27 | 0.0 | 0.9 | 0.00 | 0.00 | 0.00 | 91 | 1011.8 |
| 20260506110120 | 57 | 20 | 0.0 | 2.6 | 0.00 | 0.00 | 0.00 | 92 | 1011.8 |
| 20260506105616 | 57 | 356 | 0.9 | 1.7 | 0.00 | 0.00 | 0.00 | 92 | 1011.8 |
| 20260506105113 | 56 | 2 | 0.0 | 0.9 | 0.00 | 0.00 | 0.00 | 93 | 1012.0 |
| 20260506104611 | 56 | 27 | 0.0 | 0.0 | 0.00 | 0.00 | 0.00 | 94 | 1011.7 |
| 20260506104108 | 56 | 30 | 0.0 | 0.9 | 0.00 | 0.00 | 0.00 | 94 | 1012.0 |
| 20260506103606 | 56 | 4 | 0.0 | 0.0 | 0.00 | 0.00 | 0.00 | 94 | 1011.6 |
| 20260506103102 | 55 | 27 | 0.0 | 0.9 | 0.00 | 0.00 | 0.00 | 94 | 1011.5 |
| 20260506102601 | 55 | 24 | 0.0 | 0.9 | 0.00 | 0.00 | 0.00 | 94 | 1011.7 |
| 20260506102058 | 55 | 1 | 0.0 | 0.9 | 0.00 | 0.00 | 0.00 | 95 | 1011.8 |
| 20260506101554 | 55 | 6 | 0.0 | 0.9 | 0.00 | 0.00 | 0.00 | 95 | 1011.6 |
| 20260506101051 | 55 | 20 | 0.0 | 0.0 | 0.00 | 0.00 | 0.00 | 94 | 1011.6 |
| 20260506100550 | 55 | 16 | 0.0 | 0.9 | 0.00 | 0.00 | 0.00 | 94 | 1011.7 |
| 20260506100047 | 55 | 27 | 0.9 | 0.9 | 0.00 | 0.00 | 0.00 | 94 | 1011.5 |
| 20260506095546 | 55 | 22 | 0.0 | 0.9 | 0.00 | 0.00 | 0.00 | 94 | 1011.6 |
| 20260506095042 | 55 | 11 | 0.9 | 0.9 | 0.00 | 0.00 | 0.00 | 94 | 1011.7 |
| 20260506094540 | 55 | 21 | 0.0 | 0.0 | 0.00 | 0.00 | 0.00 | 94 | 1011.6 |
| 20260506094038 | 55 | 21 | 0.0 | 0.0 | 0.00 | 0.00 | 0.00 | 94 | 1011.7 |
| 20260506093536 | 55 | 29 | 0.0 | 0.0 | 0.00 | 0.00 | 0.00 | 93 | 1011.7 |
| 20260506093033 | 55 | 18 | 0.0 | 0.9 | 0.00 | 0.00 | 0.00 | 93 | 1011.6 |
| 20260506092530 | 55 | 30 | 0.0 | 0.9 | 0.00 | 0.00 | 0.00 | 93 | 1011.7 |
| 20260506092027 | 55 | 32 | 0.0 | 0.9 | 0.00 | 0.00 | 0.00 | 93 | 1011.7 |
| 20260506091526 | 55 | 19 | 0.0 | 0.9 | 0.00 | 0.00 | 0.00 | 93 | 1011.5 |
| 20260506091022 | 55 | 18 | 0.0 | 0.0 | 0.00 | 0.00 | 0.00 | 93 | 1011.7 |
| 20260506090520 | 55 | 39 | 0.0 | 0.9 | 0.00 | 0.00 | 0.00 | 93 | 1011.6 |
| 20260506090016 | 55 | 24 | 0.0 | 0.9 | 0.00 | 0.00 | 0.00 | 92 | 1011.6 |
| 20260506085513 | 55 | 25 | 0.0 | 0.0 | 0.00 | 0.00 | 0.00 | 92 | 1011.7 |
| 20260506085009 | 55 | 23 | 0.0 | 0.0 | 0.00 | 0.00 | 0.00 | 91 | 1011.9 |
| 20260506084506 | 56 | 33 | 0.0 | 0.9 | 0.00 | 0.00 | 0.00 | 91 | 1011.9 |
| 20260506084002 | 56 | 30 | 0.0 | 0.9 | 0.00 | 0.00 | 0.00 | 91 | 1011.7 |
| 20260506083500 | 56 | 7 | 0.0 | 1.7 | 0.00 | 0.00 | 0.00 | 90 | 1011.7 |
| 20260506082957 | 56 | 92 | 0.9 | 1.7 | 0.00 | 0.00 | 0.00 | 90 | 1011.9 |
| 20260506082454 | 56 | 21 | 0.0 | 0.0 | 0.00 | 0.00 | 0.00 | 90 | 1011.9 |
| 20260506081949 | 56 | 12 | 0.0 | 0.0 | 0.00 | 0.00 | 0.00 | 89 | 1011.9 |
| 20260506081448 | 57 | 9 | 0.0 | 0.9 | 0.00 | 0.00 | 0.00 | 89 | 1011.9 |
| 20260506080945 | 56 | 9 | 0.9 | 0.9 | 0.00 | 0.00 | 0.00 | 89 | 1011.9 |
| 20260506080442 | 57 | 67 | 0.0 | 1.7 | 0.00 | 0.00 | 0.00 | 89 | 1011.7 |
| 20260506073426 | 57 | 36 | 0.9 | 0.9 | 0.00 | 0.00 | 0.00 | 87 | 1011.9 |
| 20260506072923 | 57 | 13 | 0.0 | 0.9 | 0.00 | 0.00 | 0.00 | 87 | 1011.9 |
| 20260506072420 | 57 | 170 | 1.7 | 2.6 | 0.00 | 0.00 | 0.00 | 87 | 1012.0 |
| 20260506071918 | 58 | 8 | 0.0 | 0.9 | 0.00 | 0.00 | 0.00 | 86 | 1012.0 |
| 20260506071416 | 58 | 228 | 0.9 | 5.2 | 0.00 | 0.00 | 0.00 | 86 | 1012.0 |
| 20260506070912 | 58 | 12 | 0.0 | 0.9 | 0.00 | 0.00 | 0.00 | 86 | 1011.9 |
| 20260506070409 | 58 | 326 | 0.9 | 2.6 | 0.00 | 0.00 | 0.00 | 85 | 1011.9 |
| 20260506062347 | 58 | 285 | 0.0 | 1.7 | 0.00 | 0.00 | 0.00 | 83 | 1011.5 |
| 20260506061843 | 58 | 18 | 0.0 | 0.0 | 0.00 | 0.00 | 0.00 | 82 | 1011.8 |
| 20260506061339 | 59 | 18 | 0.0 | 0.0 | 0.00 | 0.00 | 0.00 | 82 | 1011.9 |
| 20260506060838 | 59 | 33 | 0.0 | 0.9 | 0.00 | 0.00 | 0.00 | 81 | 1011.8 |
| 20260506060335 | 59 | 9 | 0.0 | 0.0 | 0.00 | 0.00 | 0.00 | 80 | 1011.6 |
| 20260506051307 | 61 | 325 | 0.9 | 4.3 | 0.00 | 0.00 | 0.00 | 76 | 1012.3 |
| 20260506050805 | 60 | 345 | 2.6 | 2.6 | 0.00 | 0.00 | 0.00 | 76 | 1012.4 |
| 20260506050302 | 61 | 9 | 0.0 | 0.9 | 0.00 | 0.00 | 0.00 | 76 | 1012.2 |
| 20260506044752 | 62 | 277 | 1.7 | 7.8 | 0.00 | 0.00 | 0.00 | 74 | 1012.4 |
| 20260506044250 | 62 | 301 | 0.9 | 2.6 | 0.00 | 0.00 | 0.00 | 74 | 1012.3 |
| 20260506043747 | 62 | 302 | 0.9 | 1.7 | 0.00 | 0.00 | 0.00 | 74 | 1012.2 |
| 20260506043244 | 62 | 301 | 0.9 | 5.2 | 0.00 | 0.00 | 0.00 | 73 | 1012.2 |
| 20260506042743 | 62 | 184 | 1.7 | 4.3 | 0.00 | 0.00 | 0.00 | 72 | 1012.2 |
| 20260506042242 | 63 | 252 | 3.5 | 4.3 | 0.00 | 0.00 | 0.00 | 72 | 1012.3 |
| 20260506041739 | 63 | 242 | 2.6 | 7.0 | 0.00 | 0.00 | 0.00 | 71 | 1012.3 |
| 20260506041236 | 63 | 170 | 1.7 | 4.3 | 0.00 | 0.00 | 0.00 | 71 | 1012.3 |
| 20260506040734 | 63 | 265 | 2.6 | 7.0 | 0.00 | 0.00 | 0.00 | 71 | 1012.2 |
| 20260506040231 | 63 | 233 | 5.2 | 7.8 | 0.00 | 0.00 | 0.00 | 70 | 1012.2 |
| 20260506035727 | 64 | 26 | 0.9 | 7.0 | 0.00 | 0.00 | 0.00 | 70 | 1012.3 |
| 20260506035224 | 63 | 268 | 1.7 | 7.0 | 0.00 | 0.00 | 0.00 | 70 | 1012.3 |
| 20260506034721 | 64 | 10 | 0.0 | 4.3 | 0.00 | 0.00 | 0.00 | 70 | 1012.3 |
| 20260506034218 | 63 | 220 | 3.5 | 4.3 | 0.00 | 0.00 | 0.00 | 71 | 1012.2 |
| 20260506033716 | 62 | 246 | 1.7 | 4.3 | 0.00 | 0.00 | 0.00 | 71 | 1012.2 |
| 20260506033212 | 62 | 342 | 0.9 | 1.7 | 0.00 | 0.00 | 0.00 | 72 | 1012.2 |
| 20260506032709 | 62 | 345 | 0.9 | 1.7 | 0.00 | 0.00 | 0.00 | 73 | 1012.1 |
| 20260506032207 | 62 | 16 | 0.9 | 4.3 | 0.00 | 0.00 | 0.00 | 72 | 1012.3 |
| 20260506031703 | 62 | 52 | 0.9 | 1.7 | 0.00 | 0.00 | 0.00 | 73 | 1012.2 |
| 20260506031200 | 61 | 10 | 0.0 | 0.0 | 0.00 | 0.00 | 0.00 | 73 | 1012.1 |
| 20260506030659 | 61 | 330 | 0.9 | 1.7 | 0.00 | 0.00 | 0.00 | 73 | 1012.3 |
| 20260506030156 | 62 | 29 | 0.0 | 1.7 | 0.00 | 0.00 | 0.00 | 72 | 1012.3 |
| 20260506025652 | 62 | 108 | 0.9 | 1.7 | 0.00 | 0.00 | 0.00 | 72 | 1012.4 |
| 20260506025149 | 62 | 12 | 0.0 | 2.6 | 0.00 | 0.00 | 0.00 | 71 | 1012.1 |
| 20260506024646 | 62 | 208 | 2.6 | 5.2 | 0.00 | 0.00 | 0.00 | 71 | 1012.3 |
| 20260506024142 | 62 | 27 | 0.0 | 0.9 | 0.00 | 0.00 | 0.00 | 71 | 1012.2 |
| 20260506023638 | 62 | 178 | 0.9 | 2.6 | 0.00 | 0.00 | 0.00 | 70 | 1012.1 |
| 20260506023135 | 63 | 28 | 1.7 | 4.3 | 0.00 | 0.00 | 0.00 | 69 | 1012.0 |
| 20260506022633 | 64 | 16 | 0.0 | 5.2 | 0.00 | 0.00 | 0.00 | 68 | 1012.1 |
| 20260506022130 | 63 | 193 | 2.6 | 4.3 | 0.00 | 0.00 | 0.00 | 69 | 1012.1 |
| 20260506021628 | 63 | 0 | 1.7 | 2.6 | 0.00 | 0.00 | 0.00 | 69 | 1012.1 |
| 20260506021125 | 63 | 342 | 0.9 | 0.9 | 0.00 | 0.00 | 0.00 | 69 | 1012.1 |
| 20260506020622 | 63 | 358 | 0.0 | 0.9 | 0.00 | 0.00 | 0.00 | 70 | 1012.3 |
| 20260506020120 | 63 | 8 | 0.0 | 0.0 | 0.00 | 0.00 | 0.00 | 70 | 1011.9 |
| 20260506015617 | 63 | 12 | 0.0 | 0.9 | 0.00 | 0.00 | 0.00 | 69 | 1011.9 |
| 20260506015114 | 63 | 25 | 0.0 | 0.9 | 0.00 | 0.00 | 0.00 | 69 | 1012.0 |
| 20260506014612 | 64 | 17 | 0.0 | 0.9 | 0.00 | 0.00 | 0.00 | 68 | 1011.7 |
| 20260506014107 | 64 | 42 | 0.9 | 0.9 | 0.00 | 0.00 | 0.00 | 68 | 1011.8 |
| 20260506013605 | 64 | 1 | 0.0 | 0.9 | 0.00 | 0.00 | 0.00 | 67 | 1011.8 |
| 20260506013102 | 65 | 295 | 0.9 | 1.7 | 0.00 | 0.00 | 0.00 | 67 | 1011.5 |
| 20260506012558 | 65 | 277 | 0.9 | 4.3 | 0.00 | 0.00 | 0.00 | 66 | 1011.7 |
| 20260506012054 | 64 | 219 | 4.3 | 6.1 | 0.00 | 0.00 | 0.00 | 66 | 1011.6 |
| 20260506011552 | 64 | 283 | 2.6 | 4.3 | 0.00 | 0.00 | 0.00 | 67 | 1011.5 |
| 20260506011043 | 64 | 13 | 0.0 | 0.9 | 0.00 | 0.00 | 0.00 | 66 | 1011.5 |
| 20260506010542 | 64 | 10 | 0.0 | 2.6 | 0.00 | 0.00 | 0.00 | 66 | 1011.5 |
| 20260506010038 | 65 | 356 | 0.9 | 0.9 | 0.00 | 0.00 | 0.00 | 66 | 1011.4 |
| 20260506005536 | 65 | 353 | 0.9 | 2.6 | 0.00 | 0.00 | 0.00 | 65 | 1011.3 |
| 20260506005031 | 65 | 0 | 0.0 | 0.9 | 0.00 | 0.00 | 0.00 | 65 | 1011.2 |
| 20260506004529 | 66 | 30 | 0.0 | 0.9 | 0.00 | 0.00 | 0.00 | 64 | 1011.2 |
| 20260506004026 | 66 | 319 | 0.9 | 5.2 | 0.00 | 0.00 | 0.00 | 63 | 1011.0 |
| 20260506003522 | 66 | 203 | 3.5 | 6.1 | 0.00 | 0.00 | 0.00 | 63 | 1011.0 |
| 20260506003018 | 66 | 304 | 0.9 | 1.7 | 0.00 | 0.00 | 0.00 | 64 | 1011.0 |
| 20260506002514 | 66 | 317 | 0.9 | 2.6 | 0.00 | 0.00 | 0.00 | 63 | 1010.8 |
| 20260506002010 | 66 | 239 | 1.7 | 2.6 | 0.00 | 0.00 | 0.00 | 63 | 1010.8 |
| 20260506001507 | 67 | 345 | 1.7 | 2.6 | 0.00 | 0.00 | 0.00 | 62 | 1010.6 |
| 20260506001004 | 67 | 287 | 1.7 | 2.6 | 0.00 | 0.00 | 0.00 | 61 | 1010.7 |
| 20260506000501 | 68 | 268 | 2.6 | 4.3 | 0.00 | 0.00 | 0.00 | 61 | 1010.4 |
| 20260505235958 | 68 | 58 | 1.7 | 5.2 | 0.00 | 0.00 | 0.00 | 61 | 1010.5 |
| 20260505235457 | 68 | 210 | 4.3 | 6.1 | 0.00 | 0.00 | 0.00 | 60 | 1010.5 |
| 20260505234953 | 68 | 314 | 2.6 | 4.3 | 0.00 | 0.00 | 0.00 | 60 | 1010.5 |
| 20260505234450 | 68 | 347 | 1.7 | 4.3 | 0.00 | 0.00 | 0.00 | 60 | 1010.3 |
| 20260505233947 | 68 | 14 | 1.7 | 6.1 | 0.00 | 0.00 | 0.00 | 60 | 1010.3 |
| 20260505233445 | 69 | 286 | 1.7 | 5.2 | 0.00 | 0.00 | 0.00 | 60 | 1010.3 |
| 20260505232942 | 69 | 191 | 3.5 | 5.2 | 0.00 | 0.00 | 0.00 | 59 | 1010.1 |
| 20260505232440 | 69 | 182 | 6.1 | 7.8 | 0.00 | 0.00 | 0.00 | 58 | 1010.1 |
| 20260505231937 | 69 | 238 | 2.6 | 4.3 | 0.00 | 0.00 | 0.00 | 59 | 1010.0 |
| 20260505231434 | 70 | 211 | 2.6 | 5.2 | 0.00 | 0.00 | 0.00 | 58 | 1010.0 |
| 20260505230932 | 70 | 213 | 3.5 | 7.8 | 0.00 | 0.00 | 0.00 | 57 | 1009.6 |
| 20260505230430 | 70 | 199 | 8.7 | 13.9 | 0.00 | 0.00 | 0.00 | 56 | 1010.0 |
| 20260505225925 | 70 | 103 | 1.7 | 8.7 | 0.00 | 0.00 | 0.00 | 57 | 1010.0 |
| 20260505225423 | 70 | 199 | 4.3 | 6.1 | 0.00 | 0.00 | 0.00 | 57 | 1009.7 |
| 20260505224918 | 70 | 318 | 3.5 | 5.2 | 0.00 | 0.00 | 0.00 | 57 | 1009.8 |
| 20260505224416 | 71 | 213 | 3.5 | 5.2 | 0.00 | 0.00 | 0.00 | 56 | 1009.7 |
| 20260505223913 | 71 | 227 | 5.2 | 12.2 | 0.00 | 0.00 | 0.00 | 55 | 1009.6 |
| 20260505223410 | 72 | 221 | 3.5 | 6.1 | 0.00 | 0.00 | 0.00 | 55 | 1009.4 |
| 20260505222906 | 72 | 287 | 2.6 | 7.8 | 0.00 | 0.00 | 0.00 | 55 | 1009.5 |
| 20260505222402 | 72 | 211 | 9.6 | 15.6 | 0.00 | 0.00 | 0.00 | 55 | 1009.5 |
| 20260505221859 | 72 | 206 | 4.3 | 8.7 | 0.00 | 0.00 | 0.00 | 56 | 1009.3 |
| 20260505221356 | 72 | 224 | 4.3 | 7.8 | 0.00 | 0.00 | 0.00 | 55 | 1009.7 |
| 20260505220853 | 74 | 162 | 2.6 | 5.2 | 0.00 | 0.00 | 0.00 | 54 | 1009.7 |
| 20260505220350 | 74 | 17 | 2.6 | 8.7 | 0.00 | 0.00 | 0.00 | 52 | 1009.6 |
| 20260505215847 | 74 | 254 | 4.3 | 9.6 | 0.00 | 0.00 | 0.00 | 52 | 1009.7 |
| 20260505215345 | 74 | 223 | 7.8 | 11.3 | 0.00 | 0.00 | 0.00 | 52 | 1009.7 |
| 20260505214843 | 75 | 152 | 5.2 | 15.6 | 0.00 | 0.00 | 0.00 | 51 | 1009.5 |
| 20260505214340 | 75 | 200 | 3.5 | 8.7 | 0.00 | 0.00 | 0.00 | 51 | 1009.6 |
| 20260505213837 | 75 | 217 | 4.3 | 7.8 | 0.00 | 0.00 | 0.00 | 51 | 1009.4 |
| 20260505213335 | 76 | 228 | 3.5 | 7.0 | 0.00 | 0.00 | 0.00 | 50 | 1009.5 |
| 20260505212831 | 76 | 13 | 1.7 | 7.8 | 0.00 | 0.00 | 0.00 | 50 | 1009.1 |
| 20260505212328 | 75 | 176 | 3.5 | 7.8 | 0.00 | 0.00 | 0.00 | 51 | 1009.4 |
| 20260505211824 | 76 | 263 | 3.5 | 9.6 | 0.00 | 0.00 | 0.00 | 51 | 1009.1 |
| 20260505211322 | 76 | 222 | 5.2 | 8.7 | 0.00 | 0.00 | 0.00 | 49 | 1009.4 |
| 20260505210818 | 77 | 358 | 0.0 | 8.7 | 0.00 | 0.00 | 0.00 | 50 | 1009.1 |
| 20260505210315 | 76 | 101 | 1.7 | 5.2 | 0.00 | 0.00 | 0.00 | 50 | 1009.4 |
| 20260505205812 | 76 | 183 | 3.5 | 9.6 | 0.00 | 0.00 | 0.00 | 51 | 1009.3 |
| 20260505205311 | 75 | 228 | 3.5 | 6.1 | 0.00 | 0.00 | 0.00 | 50 | 1009.4 |
| 20260505204807 | 76 | 26 | 3.5 | 8.7 | 0.00 | 0.00 | 0.00 | 51 | 1009.4 |
| 20260505204305 | 77 | 191 | 6.1 | 7.0 | 0.00 | 0.00 | 0.00 | 50 | 1009.5 |
| 20260505203802 | 76 | 251 | 4.3 | 7.8 | 0.00 | 0.00 | 0.00 | 50 | 1009.4 |
| 20260505203259 | 76 | 177 | 4.3 | 9.6 | 0.00 | 0.00 | 0.00 | 49 | 1009.3 |
| 20260505202755 | 76 | 192 | 11.3 | 13.9 | 0.00 | 0.00 | 0.00 | 49 | 1009.5 |
| 20260505202251 | 77 | 194 | 5.2 | 11.3 | 0.00 | 0.00 | 0.00 | 49 | 1009.4 |
| 20260505201747 | 77 | 266 | 7.0 | 8.7 | 0.00 | 0.00 | 0.00 | 48 | 1009.3 |
| 20260505201245 | 77 | 263 | 4.3 | 13.0 | 0.00 | 0.00 | 0.00 | 50 | 1009.5 |
| 20260505200743 | 76 | 194 | 7.0 | 13.9 | 0.00 | 0.00 | 0.00 | 50 | 1009.5 |
| 20260505200240 | 77 | 203 | 7.0 | 13.0 | 0.00 | 0.00 | 0.00 | 47 | 1009.6 |
| 20260505195735 | 77 | 139 | 7.8 | 13.0 | 0.00 | 0.00 | 0.00 | 48 | 1009.6 |
| 20260505195233 | 78 | 303 | 0.9 | 15.6 | 0.00 | 0.00 | 0.00 | 48 | 1009.5 |
| 20260505194730 | 78 | 173 | 5.2 | 12.2 | 0.00 | 0.00 | 0.00 | 45 | 1009.4 |
| 20260505194227 | 79 | 214 | 9.6 | 13.0 | 0.00 | 0.00 | 0.00 | 46 | 1009.3 |